Starlink 30791

operational
NORAD ID: 58177 Int'l Des: 2023-167 Owner: SPXS Country: US Constellation: starlink
LEOCIRCULAR

Starlink 30791について

説明を読み込み中...

リアルタイム位置

3D地球を読み込み中...

次回通過

高度履歴

Altitude vs Time

uPlot chart will show altitude changes over time

軌道要素

1 58177U 23167C 25352.03677044 .00002866 00000-0 22722-3 0 9995
2 58177 43.0016 229.5176 0000910 279.0560 81.0179 15.02526281118676
Epoch: Dec 18, 2025 • Age: 14 hours

現在のステータス

高度 558.3 km
速度 7.59 km/s
衛星直下点 14.85°N, 74.91°W
打ち上げ日 Oct 30, 2023
運用期間 2.1 years
タイプ internet

技術仕様

分類 Payload
質量 730.00 kg
乾燥質量 700.00 kg
総質量 730.00 kg
長さ 0.30 m
直径 4.10 m
スパン 29.00 m
形状 Box + pan
製造者 SPXS
バスタイプ Starlink V2M
フェーズステータス In Orbit
所有者/国 SPXS/US

大規模コンステレーション

Loading constellations...